Regional Weather Roundup
Issued by NWS Cleveland, OH

Home | Current Version | Previous Version | Graphics & Text | Print | Product List | Glossary On
Versions: 1 2 3 4 5 6 7 8 9 10 11 12 13 14 15 16 17 18 19 20 21 22 23 24 25 26 27 28 29 30 31 32 33 34 35 36 37 38 39 40 41 42 43 44 45 46 47 48 49 50
000
ASUS41 KCLE 270600
RWRCLE
OHIO REGIONAL WEATHER ROUNDUP
NATIONAL WEATHER SERVICE WILMINGTON, OH
200 AM EDT FRI MAR 27 2015

NOTE: "FAIR" INDICATES FEW OR NO CLOUDS BELOW 12,000 FEET WITH NO
SIGNIFICANT WEATHER AND/OR OBSTRUCTIONS TO VISIBILITY.

OHZ001>008-015>018-024>027-034-035-043-044-270700-
   NORTHWEST OHIO

CITY           SKY/WX    TMP DP  RH WIND       PRES   REMARKS
DEFIANCE       CLOUDY    34  21  59 NW14      29.98F WCI  25
FINDLAY        CLOUDY    35  23  61 NW10      29.94F WCI  27
TOLEDO EXPRESS CLOUDY    33  23  66 NW10      29.95F WCI  25
TOLEDO EXEC    CLOUDY    35  22  58 NW10      29.95F WCI  27
LIMA           MOCLDY    34  24  67 NW8       29.95F WCI  27
$$

OHZ009>014-019>023-028>033-038-089-270700-
   NORTHEAST OHIO

CITY           SKY/WX    TMP DP  RH WIND       PRES   REMARKS
CLE-HOPKINS    MOCLDY    35  27  72 NW9       29.92F WCI  28
CLE-LAKEFRONT  CLOUDY    34  29  82 W9        29.89F WCI  27
CUY CO. ARPT   NOT AVBL
LORAIN-ELYRIA  CLOUDY    34  26  72 NW12      29.90F WCI  25
ASHTABULA      CLOUDY    33  32  96 W5        29.88R FOG     WCI  29
AKRON-CANTON   MOCLDY    35  30  82 NW7       29.88S WCI  29
WOOSTER        NOT AVBL
MANSFIELD      MOCLDY    32  25  75 SW5       29.91S WCI  27
YOUNGSTOWN     CLOUDY    34  32  92 W5        29.85F WCI  30
$$

OHZ042-051>053-060>062-070>072-077>081-270700-
  SOUTHWEST OHIO

CITY           SKY/WX    TMP DP  RH WIND       PRES   REMARKS
CINC-COVINGTON MOCLDY    37  30  75 N9        29.97F
CINC-LUNKEN    CLOUDY    38  29  70 N8        30.00S
HAMILTON       CLOUDY    38  27  64 N8        30.01R
DAYTON         NOT AVBL
WRIGHT-PAT AFB NOT AVBL
DAYTON GENERAL CLOUDY    36  24  62 N10       29.98R
WILMINGTON     MOCLDY    34  26  72 N9        29.96S WCI  27
$$

OHZ036-037-039>041-045>050-054>059-063>069-073>076-082>088-270700-
  CENTRAL AND SOUTHEAST OHIO

CITY           SKY/WX    TMP DP  RH WIND       PRES   REMARKS
COLUMBUS       PTCLDY    34  23  64 NW9       29.94F WCI  27
OSU AIRPORT    PTCLDY    32  25  75 NW9       29.95S WCI  24
BOLTON FIELD   NOT AVBL
RICKENBACK AFB NOT AVBL
NEWARK         MOCLDY    36  28  73 NW9       29.93R
MARION         CLOUDY    32  23  69 NW7       29.94S WCI  26
LANCASTER      MOCLDY    36  28  73 NW8       29.95R
ZANESVILLE     CLOUDY    37  31  78 NW14G20   29.91S
NEW PHILLY     CLOUDY    40  32  73 W8        29.91R
$$



USA.gov is the U.S. government's official web portal to all federal, state and local government web resources and services.